This is the latest recevied weather packets stored in our database for station/object K2YYD-2. If no packets are shown the sender has not sent any weather packets the latest 1 day(s).
| Time | Temp. | Humidity | Pressure | Rain* | Wind** | Luminosity | Snow |
|---|---|---|---|---|---|---|---|
| 1836274837 | 20.56° C | 54% | 1015.1 hPa | 0 mm | 1.79 m/s, 332° | 0 W/m² | - |
| 1836274716 | 21.11° C | 54% | 1015 hPa | 0 mm | 1.79 m/s, 69° | 0 W/m² | - |
| 1836274594 | 21.11° C | 54% | 1014.9 hPa | 0 mm | 1.79 m/s, 344° | 0 W/m² | - |
| 1836274567 | 20.56° C | 55% | 1015.2 hPa | 0 mm | 1.79 m/s, 159° | 0 W/m² | - |
| 1836274475 | 20.56° C | 54% | 1014.9 hPa | 0 mm | 1.79 m/s, 332° | 0 W/m² | - |
| 1836274447 | 20.56° C | 55% | 1015.1 hPa | 0 mm | 1.34 m/s, 350° | 0 W/m² | - |
| 1836274354 | 20.56° C | 54% | 1014.9 hPa | 0 mm | 1.79 m/s, 330° | 0 W/m² | - |
| 1836274327 | 20.56° C | 54% | 1015.1 hPa | 0 mm | 1.79 m/s, 330° | 0 W/m² | - |
| 1836274234 | 20.56° C | 54% | 1014.9 hPa | 0 mm | 1.79 m/s, 327° | 0 W/m² | - |
| 1836274207 | 20.56° C | 55% | 1015.1 hPa | 0 mm | 1.34 m/s, 333° | 0 W/m² | - |
| 1836274115 | 20.56° C | 55% | 1014.8 hPa | 0 mm | 1.79 m/s, 298° | 0 W/m² | - |
| 1836273994 | 20.56° C | 56% | 1014.9 hPa | 0 mm | 1.79 m/s, 12° | 0 W/m² | - |
| 1836273875 | 20.56° C | 57% | 1014.8 hPa | 0 mm | 1.79 m/s, 328° | 0 W/m² | - |
| 1778042045 | 14.44° C | 84% | 1007.8 hPa | 0 mm | 2.24 m/s, 170° | 0 W/m² | - |
| 1778041925 | 14.44° C | 84% | 1007.9 hPa | 0 mm | 1.79 m/s, 207° | 0 W/m² | - |
| 1778041869 | 14.44° C | 84% | 1007.8 hPa | 0 mm | 1.79 m/s, 171° | 0 W/m² | - |
| 1778041686 | 14.44° C | 84% | 1007.8 hPa | 0 mm | 2.24 m/s, 176° | 0 W/m² | - |
| 1778041566 | 15° C | 84% | 1007.8 hPa | 0 mm | 2.24 m/s, 185° | 0 W/m² | - |
| 1778041445 | 15° C | 84% | 1007.8 hPa | 0 mm | 2.24 m/s, 180° | 0 W/m² | - |
| 1778041325 | 15° C | 83% | 1007.8 hPa | 0 mm | 2.24 m/s, 176° | 0 W/m² | - |
| 1778041209 | 15° C | 83% | 1007.8 hPa | 0 mm | 2.24 m/s, 190° | 0 W/m² | - |
| 1778041085 | 15° C | 83% | 1007.8 hPa | 0 mm | 2.24 m/s, 198° | 0 W/m² | - |
| 1778040965 | 15° C | 83% | 1007.8 hPa | 0 mm | 2.24 m/s, 158° | 0 W/m² | - |
| 1778040845 | 15° C | 83% | 1007.8 hPa | 0 mm | 2.24 m/s, 195° | 0 W/m² | - |
| 1778040726 | 15° C | 83% | 1007.9 hPa | 0 mm | 2.24 m/s, 160° | 0 W/m² | - |
* Rain latest hour (hover to see other rain measurements)
** Current wind speed in m/s (hover to see current wind gust speed)